Location: Béaulencourt
(50.0796°N, 2.8795°E)
Time: 06:59:11
(UTC+00:00)

Lacrosse 5 rocket - Pass Details

Date: 20 January 2026
Orbit: 400 x 481 km, 57.0° (Epoch: 18 February)

Event Time Altitude Azimuth Distance (km) Brightness Sun altitude
Exits shadow 05:43:01 31° 334° (NNW) 890 2.0 -17.9°
Maximum altitude 05:44:17 42° 21° (NNE) 710 1.9 -17.7°
Drops below altitude 10° 05:47:54 10° 93° (E) 1,675 5.1 -17.1°
Sets 05:50:09 0° 101° (E) 2,550 6.6 -16.7°
